EA3E-1 Weather Reports


time (UTC)temp
F
wind
direction
speed
knots
gust
knots
rain 1hr
in
rain 24hr
in
rain mn
in
humidity
%
barometer
mb
20260507130432 67 1 4.3 9.6 0.00 1.00 0.01 62 1013.1
20260507125532 66 1 4.3 11.3 0.00 1.00 0.01 61 1013.1
20260507124632 67 1 3.5 10.4 0.00 1.00 0.01 59 1013.1
20260507123732 67 1 3.5 7.8 0.00 1.00 0.01 62 1013.1
20260507122834 66 1 5.2 9.6 0.00 1.00 0.01 62 1013.2
20260507121932 66 1 4.3 10.4 0.00 1.00 0.01 64 1013.0
20260507121032 66 1 4.3 10.4 0.00 1.00 0.01 65 1013.0
20260507120132 66 1 4.3 8.7 0.00 1.00 0.01 66 1013.0
20260507115232 66 1 3.5 8.7 0.00 1.00 0.01 67 1013.0
20260507114332 66 1 3.5 7.0 0.00 1.00 0.01 66 1013.1
20260507113432 66 1 3.5 7.8 0.00 1.00 0.01 67 1013.3
20260507112532 66 1 3.5 8.7 0.00 1.00 0.01 66 1013.4
20260507111632 66 1 3.5 7.8 0.00 1.00 0.01 66 1013.4
20260507110732 66 1 3.5 8.7 0.00 1.00 0.01 67 1013.4
20260507105832 66 1 3.5 7.0 0.00 1.00 0.01 66 1013.4
20260507104032 65 1 2.6 7.0 0.00 1.00 0.01 68 1013.6
20260507103132 65 1 2.6 7.0 0.00 1.00 0.01 69 1013.7
20260507102232 65 1 2.6 5.2 0.00 1.00 0.01 69 1013.7
20260507101332 64 1 3.5 8.7 0.00 1.00 0.01 70 1013.8
20260507095532 64 1 0.9 3.5 0.00 1.00 0.01 68 1013.9
20260507094632 64 1 1.7 2.6 0.00 1.00 0.01 70 1014.0
20260507093732 63 1 0.9 5.2 0.00 1.00 0.01 70 1014.0
20260507091932 63 1 1.7 5.2 0.00 1.00 0.01 70 1013.8
20260507091032 62 1 1.7 5.2 0.00 1.00 0.01 70 1013.8
20260507090132 63 1 0.9 4.3 0.00 1.00 0.01 70 1013.8
20260507084332 62 1 2.6 3.5 0.00 1.00 0.01 73 1014.0
20260507083432 62 1 1.7 6.1 0.00 1.00 0.01 74 1014.0
20260507082532 61 1 1.7 4.3 0.00 1.00 0.01 75 1014.2
20260507081632 60 1 1.7 4.3 0.00 1.00 0.01 75 1014.2
20260507074931 59 1 1.7 4.3 0.00 1.00 0.01 77 1014.3
20260507074032 59 1 0.9 3.5 0.00 1.00 0.01 76 1014.2
20260507073132 59 1 0.9 2.6 0.00 1.00 0.01 73 1014.2
20260507072231 58 1 0.9 3.5 0.00 1.00 0.01 71 1014.1
20260507071331 58 1 1.7 2.6 0.00 1.00 0.01 63 1014.0
20260507070432 57 1 0.9 3.5 0.00 1.00 0.01 63 1014.0
20260507065532 57 1 0.0 0.9 0.00 1.00 0.01 61 1014.0
20260507064631 57 1 0.9 0.9 0.00 1.00 0.01 61 1013.9
20260507061931 56 0 0.0 0.0 0.00 1.00 0.01 61 1013.7
20260507061031 55 0 0.0 0.0 0.00 1.00 0.01 61 1013.6
20260507055231 54 0 0.0 0.0 0.00 1.00 0.01 61 1013.5
20260507054331 53 0 0.0 0.0 0.00 1.00 0.01 61 1013.5
20260507052531 53 1 0.0 0.9 0.00 1.00 0.01 61 1013.4
20260507051631 53 0 0.0 0.0 0.00 1.00 0.01 61 1013.4
20260507045831 52 1 0.0 1.7 0.00 1.00 0.01 61 1013.3
20260507044031 52 0 0.0 0.0 0.01 1.00 0.01 61 1013.3
20260507043131 52 0 0.0 0.0 0.01 1.00 0.01 62 1013.3
20260507042231 53 0 0.0 0.0 0.01 1.00 0.01 61 1013.3
20260507041331 53 0 0.0 0.0 0.01 1.00 0.01 61 1013.2
20260507040431 53 0 0.0 0.0 0.01 1.00 0.01 61 1013.2
20260507035531 53 0 0.0 0.0 0.01 1.00 0.01 61 1013.2
20260507033731 53 0 0.0 0.0 0.00 0.99 0.00 61 1013.2
20260507032831 54 1 0.0 1.7 0.00 0.99 0.00 61 1013.1
20260507031031 54 1 0.9 1.7 0.00 0.99 0.00 61 1013.0
20260507030131 54 1 0.0 2.6 0.00 0.99 0.00 61 1013.1
20260507025231 54 1 1.7 2.6 0.00 0.99 0.00 61 1013.2
20260507024331 54 1 1.7 3.5 0.00 0.99 0.00 61 1013.2
20260507021631 55 0 0.0 0.0 0.00 0.99 0.00 61 1013.2
20260507020731 55 0 0.0 0.0 0.00 0.99 0.00 61 1013.2
20260507015831 55 1 0.9 1.7 0.00 0.99 0.00 61 1013.2
20260507014931 55 1 0.9 1.7 0.00 0.99 0.00 61 1013.1
20260507014031 55 1 1.7 2.6 0.00 0.99 0.00 61 1013.2
20260507013131 55 1 1.7 2.6 0.00 0.99 0.00 61 1013.4
20260507012230 55 1 0.9 2.6 0.00 0.99 0.00 61 1013.5
20260507011330 55 1 0.0 1.7 0.00 0.99 0.00 61 1013.6
20260507010430 56 1 1.7 2.6 0.00 0.99 0.00 61 1013.6
20260507003730 56 1 0.9 2.6 0.00 0.99 0.00 61 1013.9
20260507002830 56 1 0.0 2.6 0.00 0.99 0.00 61 1013.9
20260507001930 56 1 0.0 1.7 0.00 0.99 0.00 61 1013.9
20260507001030 56 0 0.0 0.0 0.00 0.99 0.00 62 1014.0
20260506235230 56 0 0.0 0.0 0.00 0.99 0.00 62 1014.0
20260506234330 56 0 0.0 0.0 0.00 0.99 0.00 62 1014.1
20260506233430 56 1 1.7 1.7 0.00 0.99 0.00 63 1014.2
20260506232530 56 1 1.7 2.6 0.00 0.99 0.00 63 1014.1
20260506231630 56 1 2.6 3.5 0.00 0.99 0.00 64 1014.1
20260506230730 56 1 0.9 4.3 0.00 0.99 0.00 64 1014.2
20260506224930 56 1 0.9 2.6 0.00 0.99 0.00 63 1014.2
20260506224030 56 1 1.7 2.6 0.00 0.99 0.00 62 1014.2
20260506223130 56 358 1.7 3.5 0.00 0.99 0.00 62 1014.1
20260506222230 56 1 2.6 3.5 0.00 0.99 0.00 62 1014.1
20260506221330 56 358 3.5 5.2 0.00 0.99 0.00 61 1014.1
20260506220430 56 356 2.6 6.1 0.00 0.99 0.00 61 1014.1
20260506215530 56 1 2.6 4.3 0.00 0.99 0.99 61 1014.2
20260506214630 55 1 1.7 4.3 0.00 0.99 0.99 61 1014.1
20260506213730 55 1 1.7 3.5 0.00 0.99 0.99 61 1014.1
20260506212830 55 1 0.0 4.3 0.00 0.99 0.99 61 1014.1
20260506211930 56 1 0.0 1.7 0.00 0.99 0.99 61 1014.1
20260506211030 56 0 0.0 0.0 0.00 0.99 0.99 61 1014.0
20260506210130 56 0 0.0 0.0 0.00 0.99 0.99 61 1014.0
20260506205230 56 0 0.0 0.0 0.01 0.99 0.99 61 1014.1
20260506204330 56 1 1.7 1.7 0.01 0.99 0.99 61 1014.1
20260506203430 56 1 0.9 2.6 0.01 0.99 0.99 61 1014.1
20260506202530 56 1 1.7 2.6 0.01 0.99 0.99 61 1014.0
20260506201630 56 1 1.7 5.2 0.01 0.99 0.99 61 1013.9
20260506200730 56 1 3.5 6.1 0.01 0.99 0.99 61 1013.8
20260506195830 56 1 3.5 7.0 0.01 0.99 0.99 61 1013.7
20260506194930 56 1 3.5 6.1 0.00 0.98 0.98 61 1013.5
20260506194030 56 1 4.3 7.8 0.00 0.98 0.98 61 1013.5
20260506193130 56 1 4.3 7.8 0.00 0.98 0.98 61 1013.3
20260506192230 56 1 3.5 6.1 0.00 0.98 0.98 61 1013.2
20260506191330 56 1 2.6 5.2 0.00 0.98 0.98 61 1013.1
20260506190429 56 1 2.6 5.2 0.00 1.02 0.98 61 1013.0
20260506185530 56 1 3.5 7.0 0.00 1.02 0.98 61 1012.9
20260506184629 56 1 3.5 7.0 0.00 1.02 0.98 61 1012.9
20260506183729 56 1 3.5 7.0 0.00 1.02 0.98 61 1012.8
20260506182830 56 1 3.5 7.8 0.00 1.02 0.98 61 1012.7
20260506181930 56 1 3.5 7.8 0.00 1.02 0.98 61 1012.6
20260506181030 56 1 2.6 5.2 0.00 1.02 0.98 61 1012.4
20260506175229 56 1 2.6 5.2 0.02 1.02 0.98 61 1012.1
20260506173429 57 1 2.6 6.1 0.03 1.02 0.98 61 1011.8
20260506172529 57 1 1.7 5.2 0.03 1.02 0.98 61 1011.9
20260506171629 57 1 1.7 4.3 0.03 1.02 0.98 61 1011.9
20260506170729 57 1 1.7 3.5 0.03 1.02 0.98 61 1011.6
20260506165829 56 1 1.7 3.5 0.02 1.00 0.96 61 1011.9
20260506164929 56 1 1.7 3.5 0.02 1.00 0.96 62 1011.9
20260506164029 56 1 1.7 3.5 0.02 1.00 0.96 62 1011.8
20260506163129 57 1 3.5 6.1 0.06 0.99 0.95 62 1011.7
20260506161329 57 1 3.5 5.2 0.65 0.99 0.95 63 1011.7
20260506160429 56 1 5.2 10.4 0.93 0.99 0.95 63 1011.6
20260506155529 56 1 5.2 10.4 0.94 0.98 0.94 63 1011.5
20260506153729 56 1 8.7 20.0 0.94 0.98 0.94 65 1010.9
20260506152829 55 1 10.4 18.2 0.89 0.93 0.90 67 1010.9
20260506151929 55 1 9.6 22.6 0.68 0.73 0.70 73 1011.3
20260506151029 56 1 7.8 22.6 0.16 0.27 0.20 77 1010.6
20260506144329 62 1 5.2 11.3 0.00 0.34 0.00 72 1010.2
20260506143429 62 1 5.2 11.3 0.00 0.35 0.00 71 1010.2
20260506141629 63 1 5.2 10.4 0.00 0.39 0.00 70 1010.4
20260506140729 63 1 4.3 13.0 0.00 0.39 0.00 68 1010.7
20260506135829 64 1 5.2 14.8 0.00 0.39 0.00 68 1010.6
20260506134929 64 1 4.3 13.0 0.00 0.39 0.00 68 1010.9
20260506134029 64 1 4.3 10.4 0.00 0.39 0.00 68 1011.0
20260506133129 64 1 4.3 11.3 0.00 0.39 0.00 68 1011.1
20260506131329 64 1 5.2 11.3 0.00 0.39 0.00 68 1011.2